contact:dominique.lefevre@mio.osupytheas.fr, maurice.libes@osupytheas.fr, didier.mallarino@osupytheas.fr
Project:EMSO http://www.emso-fr.org/EMSO-France
Depth: 2436.0 m
Title:EMSO Ligure Ouest : Data MII capteur MICROCAT
DateTime_Computer,Latitude,Longitude,Temperature,Conductivity,Pressure,DateTime_Instrument
DateTime_Computer,Latitude,Longitude,degC,S m-1,dbar,DateTime_Instrument
2020-07-17T00:01:51Z,42.805,6.029,13.2986,4.60003,2470.03,2020-7-17T02:02:38Z
2020-07-17T00:04:54Z,42.805,6.029,13.2998,4.59998,2470.04,2020-7-17T02:05:41Z
2020-07-17T00:07:57Z,42.805,6.029,13.2993,4.60003,2470.017,2020-7-17T02:08:44Z
2020-07-17T00:11:01Z,42.805,6.029,13.3000,4.60040,2470.03,2020-7-17T02:11:48Z
2020-07-17T00:14:04Z,42.805,6.029,13.2993,4.60001,2470.03,2020-7-17T02:14:51Z
2020-07-17T00:17:07Z,42.805,6.029,13.2990,4.60009,2470.063,2020-7-17T02:17:54Z
2020-07-17T00:20:10Z,42.805,6.029,13.2996,4.59996,2470.017,2020-7-17T02:20:57Z
2020-07-17T00:23:14Z,42.805,6.029,13.2995,4.60011,2470.04,2020-7-17T02:24:00Z
2020-07-17T00:26:17Z,42.805,6.029,13.3000,4.59986,2470.03,2020-7-17T02:27:04Z
2020-07-17T00:29:20Z,42.805,6.029,13.2995,4.60004,2470.063,2020-7-17T02:30:07Z
2020-07-17T00:32:23Z,42.805,6.029,13.2996,4.59996,2470.053,2020-7-17T02:33:10Z
2020-07-17T00:35:27Z,42.805,6.029,13.2994,4.60011,2470.053,2020-7-17T02:36:14Z
2020-07-17T00:38:30Z,42.805,6.029,13.2990,4.60003,2470.04,2020-7-17T02:39:17Z
2020-07-17T00:41:33Z,42.805,6.029,13.2991,4.59997,2470.053,2020-7-17T02:42:20Z
2020-07-17T00:44:37Z,42.805,6.029,13.2990,4.60007,2470.04,2020-7-17T02:45:23Z
2020-07-17T00:47:40Z,42.805,6.029,13.2982,4.59991,2470.063,2020-7-17T02:48:27Z
2020-07-17T00:50:43Z,42.805,6.029,13.2995,4.60005,2470.053,2020-7-17T02:51:30Z
2020-07-17T00:53:47Z,42.805,6.029,13.2987,4.59993,2470.053,2020-7-17T02:54:34Z
2020-07-17T00:56:50Z,42.805,6.029,13.2990,4.59992,2470.077,2020-7-17T02:57:37Z
2020-07-17T00:59:53Z,42.805,6.029,13.2986,4.59998,2470.04,2020-7-17T03:00:40Z
2020-07-17T01:02:57Z,42.805,6.029,13.2990,4.59991,2470.04,2020-7-17T03:03:43Z
2020-07-17T01:06:00Z,42.805,6.029,13.2991,4.59996,2470.017,2020-7-17T03:06:47Z
2020-07-17T01:09:03Z,42.805,6.029,13.3004,4.59999,2470.063,2020-7-17T03:09:50Z
2020-07-17T01:12:06Z,42.805,6.029,13.2993,4.59996,2470.04,2020-7-17T03:12:53Z
2020-07-17T01:15:09Z,42.805,6.029,13.2991,4.60005,2470.026,2020-7-17T03:15:56Z
2020-07-17T01:18:13Z,42.805,6.029,13.2995,4.59993,2470.077,2020-7-17T03:19:00Z
2020-07-17T01:21:16Z,42.805,6.029,13.2994,4.60019,2470.04,2020-7-17T03:22:03Z
2020-07-17T01:24:19Z,42.805,6.029,13.2998,4.60000,2470.04,2020-7-17T03:25:06Z
2020-07-17T01:27:22Z,42.805,6.029,13.3010,4.60005,2470.04,2020-7-17T03:28:09Z
2020-07-17T01:30:26Z,42.805,6.029,13.2996,4.59991,2470.053,2020-7-17T03:31:12Z
2020-07-17T01:33:29Z,42.805,6.029,13.2991,4.59997,2470.053,2020-7-17T03:34:16Z
2020-07-17T01:36:32Z,42.805,6.029,13.2993,4.60005,2470.017,2020-7-17T03:37:19Z
2020-07-17T01:39:35Z,42.805,6.029,13.2990,4.59992,2470.053,2020-7-17T03:40:22Z
2020-07-17T01:42:38Z,42.805,6.029,13.2990,4.59999,2470.063,2020-7-17T03:43:25Z
2020-07-17T01:45:42Z,42.805,6.029,13.2998,4.60020,2470.063,2020-7-17T03:46:29Z
2020-07-17T01:48:45Z,42.805,6.029,13.2993,4.59995,2470.03,2020-7-17T03:49:32Z
2020-07-17T01:51:48Z,42.805,6.029,13.2993,4.60011,2470.1,2020-7-17T03:52:35Z
2020-07-17T01:54:51Z,42.805,6.029,13.2992,4.60017,2470.017,2020-7-17T03:55:38Z
2020-07-17T01:57:55Z,42.805,6.029,13.2986,4.60006,2470.063,2020-7-17T03:58:41Z
2020-07-17T02:00:58Z,42.805,6.029,13.2989,4.60005,2470.067,2020-7-17T04:01:45Z
2020-07-17T02:04:01Z,42.805,6.029,13.2980,4.60031,2470.053,2020-7-17T04:04:48Z
2020-07-17T02:07:04Z,42.805,6.029,13.2984,4.59999,2470.1,2020-7-17T04:07:51Z
2020-07-17T02:10:08Z,42.805,6.029,13.2987,4.60025,2470.077,2020-7-17T04:10:54Z
2020-07-17T02:13:11Z,42.805,6.029,13.3009,4.59993,2470.053,2020-7-17T04:13:58Z
2020-07-17T02:16:14Z,42.805,6.029,13.3000,4.59999,2470.04,2020-7-17T04:17:01Z
2020-07-17T02:19:17Z,42.805,6.029,13.2989,4.59999,2470.053,2020-7-17T04:20:04Z
2020-07-17T02:22:21Z,42.805,6.029,13.2996,4.59999,2470.063,2020-7-17T04:23:08Z
2020-07-17T02:25:24Z,42.805,6.029,13.2987,4.60008,2470.053,2020-7-17T04:26:11Z
2020-07-17T02:28:27Z,42.805,6.029,13.3000,4.60005,2470.063,2020-7-17T04:29:14Z
2020-07-17T02:31:31Z,42.805,6.029,13.3006,4.60011,2470.087,2020-7-17T04:32:17Z
2020-07-17T02:34:34Z,42.805,6.029,13.2998,4.60011,2470.087,2020-7-17T04:35:21Z
2020-07-17T02:37:37Z,42.805,6.029,13.3005,4.60032,2470.03,2020-7-17T04:38:24Z
2020-07-17T02:40:40Z,42.805,6.029,13.3000,4.60003,2470.124,2020-7-17T04:41:27Z
2020-07-17T02:43:43Z,42.805,6.029,13.3011,4.60013,2470.1,2020-7-17T04:44:30Z
2020-07-17T02:46:47Z,42.805,6.029,13.2993,4.60003,2470.077,2020-7-17T04:47:34Z
2020-07-17T02:49:50Z,42.805,6.029,13.2993,4.59999,2470.087,2020-7-17T04:50:37Z
2020-07-17T02:52:53Z,42.805,6.029,13.2982,4.60007,2470.077,2020-7-17T04:53:40Z
2020-07-17T02:55:56Z,42.805,6.029,13.2991,4.60009,2470.087,2020-7-17T04:56:43Z
2020-07-17T02:59:00Z,42.805,6.029,13.2998,4.60004,2470.1,2020-7-17T04:59:47Z
2020-07-17T03:02:03Z,42.805,6.029,13.2979,4.60008,2470.1,2020-7-17T05:02:50Z
2020-07-17T03:05:06Z,42.805,6.029,13.2976,4.59994,2470.1,2020-7-17T05:05:53Z
2020-07-17T03:08:09Z,42.805,6.029,13.2982,4.59996,2470.087,2020-7-17T05:08:56Z
2020-07-17T03:11:13Z,42.805,6.029,13.2995,4.60000,2470.087,2020-7-17T05:11:59Z
2020-07-17T03:14:16Z,42.805,6.029,13.2986,4.60003,2470.063,2020-7-17T05:15:03Z
2020-07-17T03:17:19Z,42.805,6.029,13.2982,4.60001,2470.077,2020-7-17T05:18:06Z
2020-07-17T03:20:22Z,42.805,6.029,13.2981,4.59994,2470.124,2020-7-17T05:21:09Z
2020-07-17T03:23:26Z,42.805,6.029,13.2991,4.59997,2470.087,2020-7-17T05:24:13Z
2020-07-17T03:26:29Z,42.805,6.029,13.3002,4.60005,2470.1,2020-7-17T05:27:16Z
2020-07-17T03:29:32Z,42.805,6.029,13.3000,4.59999,2470.087,2020-7-17T05:30:19Z
2020-07-17T03:32:35Z,42.805,6.029,13.2988,4.60014,2470.11,2020-7-17T05:33:22Z
2020-07-17T03:35:39Z,42.805,6.029,13.2975,4.59994,2470.11,2020-7-17T05:36:25Z
2020-07-17T03:38:42Z,42.805,6.029,13.2993,4.59997,2470.087,2020-7-17T05:39:29Z
2020-07-17T03:41:45Z,42.805,6.029,13.2987,4.60004,2470.124,2020-7-17T05:42:32Z
2020-07-17T03:44:48Z,42.805,6.029,13.2996,4.60003,2470.124,2020-7-17T05:45:35Z
2020-07-17T03:47:52Z,42.805,6.029,13.2991,4.60005,2470.087,2020-7-17T05:48:39Z
2020-07-17T03:50:55Z,42.805,6.029,13.2982,4.60008,2470.063,2020-7-17T05:51:42Z
2020-07-17T03:53:58Z,42.805,6.029,13.2994,4.59997,2470.11,2020-7-17T05:54:45Z
2020-07-17T03:57:01Z,42.805,6.029,13.2989,4.60006,2470.087,2020-7-17T05:57:48Z
2020-07-17T04:00:04Z,42.805,6.029,13.2978,4.60000,2470.087,2020-7-17T06:00:51Z
2020-07-17T04:03:08Z,42.805,6.029,13.2984,4.59999,2470.087,2020-7-17T06:03:55Z
2020-07-17T04:06:11Z,42.805,6.029,13.3000,4.60004,2470.11,2020-7-17T06:06:58Z
2020-07-17T04:09:14Z,42.805,6.029,13.2989,4.60006,2470.087,2020-7-17T06:10:01Z
2020-07-17T04:12:17Z,42.805,6.029,13.2980,4.60033,2470.11,2020-7-17T06:13:04Z
2020-07-17T04:15:21Z,42.805,6.029,13.2983,4.60016,2470.1,2020-7-17T06:16:08Z
2020-07-17T04:18:24Z,42.805,6.029,13.2980,4.59998,2470.124,2020-7-17T06:19:11Z
2020-07-17T04:21:27Z,42.805,6.029,13.2977,4.60003,2470.11,2020-7-17T06:22:14Z
2020-07-17T04:24:30Z,42.805,6.029,13.2984,4.59999,2470.11,2020-7-17T06:25:17Z
2020-07-17T04:27:34Z,42.805,6.029,13.2993,4.60009,2470.087,2020-7-17T06:28:21Z
2020-07-17T04:30:37Z,42.805,6.029,13.2978,4.59995,2470.1,2020-7-17T06:31:24Z
2020-07-17T04:33:40Z,42.805,6.029,13.2981,4.60000,2470.087,2020-7-17T06:34:27Z
2020-07-17T04:36:43Z,42.805,6.029,13.2981,4.59993,2470.1,2020-7-17T06:37:30Z
2020-07-17T04:39:47Z,42.805,6.029,13.2980,4.60000,2470.124,2020-7-17T06:40:34Z
2020-07-17T04:42:50Z,42.805,6.029,13.2975,4.59994,2470.096,2020-7-17T06:43:37Z
2020-07-17T04:45:53Z,42.805,6.029,13.2976,4.59997,2470.11,2020-7-17T06:46:40Z
2020-07-17T04:48:56Z,42.805,6.029,13.2980,4.59989,2470.133,2020-7-17T06:49:43Z
2020-07-17T04:52:00Z,42.805,6.029,13.2974,4.59989,2470.11,2020-7-17T06:52:47Z
2020-07-17T04:55:03Z,42.805,6.029,13.2982,4.59996,2470.11,2020-7-17T06:55:50Z
2020-07-17T04:58:06Z,42.805,6.029,13.2986,4.60006,2470.087,2020-7-17T06:58:53Z
2020-07-17T05:01:10Z,42.805,6.029,13.2986,4.59994,2470.087,2020-7-17T07:01:56Z
2020-07-17T05:04:13Z,42.805,6.029,13.2998,4.60007,2470.133,2020-7-17T07:05:00Z
2020-07-17T05:07:16Z,42.805,6.029,13.2991,4.60008,2470.087,2020-7-17T07:08:03Z
2020-07-17T05:10:19Z,42.805,6.029,13.3006,4.60015,2470.1,2020-7-17T07:11:06Z
2020-07-17T05:13:22Z,42.805,6.029,13.2986,4.60000,2470.063,2020-7-17T07:14:09Z
2020-07-17T05:16:26Z,42.805,6.029,13.2995,4.60019,2470.1,2020-7-17T07:17:13Z
2020-07-17T05:19:29Z,42.805,6.029,13.3012,4.60025,2470.11,2020-7-17T07:20:16Z
2020-07-17T05:22:32Z,42.805,6.029,13.2979,4.59994,2470.124,2020-7-17T07:23:19Z
2020-07-17T05:25:36Z,42.805,6.029,13.2991,4.60000,2470.1,2020-7-17T07:26:23Z
2020-07-17T05:28:39Z,42.805,6.029,13.2993,4.60014,2470.11,2020-7-17T07:29:26Z
2020-07-17T05:31:42Z,42.805,6.029,13.2998,4.59998,2470.1,2020-7-17T07:32:29Z
2020-07-17T05:34:45Z,42.805,6.029,13.2987,4.60006,2470.1,2020-7-17T07:35:32Z
2020-07-17T05:37:49Z,42.805,6.029,13.2981,4.60005,2470.11,2020-7-17T07:38:36Z
2020-07-17T05:40:52Z,42.805,6.029,13.2984,4.60021,2470.1,2020-7-17T07:41:39Z
2020-07-17T05:43:55Z,42.805,6.029,13.2990,4.60004,2470.087,2020-7-17T07:44:42Z
2020-07-17T05:46:59Z,42.805,6.029,13.2986,4.60007,2470.063,2020-7-17T07:47:45Z
2020-07-17T05:50:02Z,42.805,6.029,13.2996,4.60009,2470.087,2020-7-17T07:50:49Z
2020-07-17T05:53:05Z,42.805,6.029,13.2993,4.60009,2470.124,2020-7-17T07:53:52Z
2020-07-17T05:56:08Z,42.805,6.029,13.3008,4.60006,2470.087,2020-7-17T07:56:55Z
2020-07-17T05:59:11Z,42.805,6.029,13.2991,4.60008,2470.1,2020-7-17T07:59:58Z
2020-07-17T06:02:15Z,42.805,6.029,13.2995,4.60006,2470.1,2020-7-17T08:03:02Z
2020-07-17T06:05:18Z,42.805,6.029,13.2996,4.59999,2470.077,2020-7-17T08:06:05Z
2020-07-17T06:08:21Z,42.805,6.029,13.2986,4.60016,2470.063,2020-7-17T08:09:08Z
2020-07-17T06:11:24Z,42.805,6.029,13.2985,4.60006,2470.063,2020-7-17T08:12:11Z
2020-07-17T06:14:28Z,42.805,6.029,13.2985,4.60010,2470.1,2020-7-17T08:15:14Z
2020-07-17T06:17:31Z,42.805,6.029,13.2993,4.60006,2470.087,2020-7-17T08:18:18Z
2020-07-17T06:20:34Z,42.805,6.029,13.2994,4.60008,2470.063,2020-7-17T08:21:21Z
2020-07-17T06:23:38Z,42.805,6.029,13.2990,4.60011,2470.063,2020-7-17T08:24:24Z
2020-07-17T06:26:41Z,42.805,6.029,13.2998,4.60003,2470.077,2020-7-17T08:27:28Z
2020-07-17T06:29:44Z,42.805,6.029,13.3000,4.60009,2470.1,2020-7-17T08:30:31Z
2020-07-17T06:32:47Z,42.805,6.029,13.2988,4.59990,2470.077,2020-7-17T08:33:34Z
2020-07-17T06:35:50Z,42.805,6.029,13.2993,4.59998,2470.077,2020-7-17T08:36:37Z
2020-07-17T06:38:54Z,42.805,6.029,13.2990,4.59988,2470.077,2020-7-17T08:39:41Z
2020-07-17T06:41:57Z,42.805,6.029,13.2992,4.60004,2470.077,2020-7-17T08:42:44Z
2020-07-17T06:45:00Z,42.805,6.029,13.2990,4.60003,2470.053,2020-7-17T08:45:47Z
2020-07-17T06:48:03Z,42.805,6.029,13.3005,4.60001,2470.063,2020-7-17T08:48:50Z
2020-07-17T06:51:07Z,42.805,6.029,13.2993,4.59992,2470.063,2020-7-17T08:51:54Z
2020-07-17T06:54:10Z,42.805,6.029,13.2997,4.60006,2470.063,2020-7-17T08:54:57Z
2020-07-17T06:57:13Z,42.805,6.029,13.2993,4.59991,2470.04,2020-7-17T08:58:00Z
2020-07-17T07:00:16Z,42.805,6.029,13.2990,4.59991,2470.04,2020-7-17T09:01:03Z
2020-07-17T07:03:20Z,42.805,6.029,13.2993,4.60004,2470.053,2020-7-17T09:04:07Z
2020-07-17T07:06:23Z,42.805,6.029,13.2983,4.60003,2470.077,2020-7-17T09:07:10Z
2020-07-17T07:09:26Z,42.805,6.029,13.2997,4.59994,2470.04,2020-7-17T09:10:13Z
2020-07-17T07:12:29Z,42.805,6.029,13.2990,4.59991,2470.053,2020-7-17T09:13:16Z
2020-07-17T07:15:33Z,42.805,6.029,13.2992,4.59994,2470.063,2020-7-17T09:16:19Z
2020-07-17T07:18:36Z,42.805,6.029,13.2996,4.59998,2470.007,2020-7-17T09:19:23Z
2020-07-17T07:21:39Z,42.805,6.029,13.2987,4.59998,2470.053,2020-7-17T09:22:26Z
2020-07-17T07:24:42Z,42.805,6.029,13.2992,4.59988,2470.053,2020-7-17T09:25:29Z
2020-07-17T07:27:46Z,42.805,6.029,13.2990,4.60008,2470.017,2020-7-17T09:28:33Z
2020-07-17T07:30:49Z,42.805,6.029,13.2990,4.59996,2470.063,2020-7-17T09:31:36Z
2020-07-17T07:33:52Z,42.805,6.029,13.2993,4.59996,2470.04,2020-7-17T09:34:39Z
2020-07-17T07:36:56Z,42.805,6.029,13.2991,4.59991,2470.03,2020-7-17T09:37:42Z
2020-07-17T07:39:59Z,42.805,6.029,13.2996,4.59989,2470.077,2020-7-17T09:40:46Z
2020-07-17T07:43:02Z,42.805,6.029,13.2991,4.59997,2470.04,2020-7-17T09:43:49Z
2020-07-17T07:46:05Z,42.805,6.029,13.2989,4.59999,2470.017,2020-7-17T09:46:52Z
2020-07-17T07:49:09Z,42.805,6.029,13.2996,4.59987,2470.03,2020-7-17T09:49:56Z
2020-07-17T07:52:12Z,42.805,6.029,13.2996,4.59986,2470.03,2020-7-17T09:52:59Z
2020-07-17T07:55:15Z,42.805,6.029,13.2986,4.60011,2470.017,2020-7-17T09:56:02Z
2020-07-17T07:58:18Z,42.805,6.029,13.2998,4.59998,2470.017,2020-7-17T09:59:05Z
2020-07-17T08:01:22Z,42.805,6.029,13.3005,4.60033,2470.017,2020-7-17T10:02:09Z
2020-07-17T08:04:25Z,42.805,6.029,13.2993,4.60001,2470.03,2020-7-17T10:05:12Z
2020-07-17T08:07:28Z,42.805,6.029,13.2990,4.59994,2470.017,2020-7-17T10:08:15Z
2020-07-17T08:10:32Z,42.805,6.029,13.3003,4.59995,2470.053,2020-7-17T10:11:18Z
2020-07-17T08:13:35Z,42.805,6.029,13.2990,4.59989,2470.007,2020-7-17T10:14:22Z
2020-07-17T08:16:38Z,42.805,6.029,13.2998,4.59999,2470.053,2020-7-17T10:17:25Z
2020-07-17T08:19:41Z,42.805,6.029,13.2985,4.59993,2470.03,2020-7-17T10:20:28Z
2020-07-17T08:22:45Z,42.805,6.029,13.2993,4.59987,2470.007,2020-7-17T10:23:32Z
2020-07-17T08:25:48Z,42.805,6.029,13.2993,4.59988,2470.017,2020-7-17T10:26:35Z
2020-07-17T08:28:51Z,42.805,6.029,13.2991,4.59990,2469.984,2020-7-17T10:29:38Z
2020-07-17T08:31:55Z,42.805,6.029,13.2987,4.59987,2469.993,2020-7-17T10:32:41Z
2020-07-17T08:34:58Z,42.805,6.029,13.2984,4.59985,2470.03,2020-7-17T10:35:45Z
2020-07-17T08:38:01Z,42.805,6.029,13.2991,4.59989,2469.993,2020-7-17T10:38:48Z
2020-07-17T08:41:05Z,42.805,6.029,13.2991,4.59989,2469.97,2020-7-17T10:41:51Z
2020-07-17T08:44:08Z,42.805,6.029,13.2986,4.59991,2469.97,2020-7-17T10:44:55Z
2020-07-17T08:47:11Z,42.805,6.029,13.2991,4.59991,2470.017,2020-7-17T10:47:58Z
2020-07-17T08:50:14Z,42.805,6.029,13.2985,4.59984,2469.984,2020-7-17T10:51:01Z
2020-07-17T08:53:17Z,42.805,6.029,13.2982,4.59988,2470.017,2020-7-17T10:54:04Z
2020-07-17T08:56:20Z,42.805,6.029,13.2986,4.59986,2470.007,2020-7-17T10:57:07Z
2020-07-17T08:59:24Z,42.805,6.029,13.2986,4.59992,2470.03,2020-7-17T11:00:11Z
2020-07-17T09:02:27Z,42.805,6.029,13.2994,4.59988,2469.993,2020-7-17T11:03:14Z
2020-07-17T09:05:30Z,42.805,6.029,13.2988,4.59989,2470.007,2020-7-17T11:06:17Z
2020-07-17T09:08:34Z,42.805,6.029,13.2989,4.59989,2469.993,2020-7-17T11:09:20Z
2020-07-17T09:11:37Z,42.805,6.029,13.2993,4.59986,2469.984,2020-7-17T11:12:24Z
2020-07-17T09:14:40Z,42.805,6.029,13.2988,4.59988,2470.007,2020-7-17T11:15:27Z
2020-07-17T09:17:43Z,42.805,6.029,13.2983,4.59991,2469.97,2020-7-17T11:18:30Z
2020-07-17T09:20:46Z,42.805,6.029,13.2990,4.60000,2469.956,2020-7-17T11:21:33Z
2020-07-17T09:23:50Z,42.805,6.029,13.2991,4.59988,2469.984,2020-7-17T11:24:37Z
2020-07-17T09:26:53Z,42.805,6.029,13.2990,4.59998,2469.956,2020-7-17T11:27:40Z
2020-07-17T09:29:56Z,42.805,6.029,13.3001,4.59987,2469.97,2020-7-17T11:30:43Z
2020-07-17T09:33:00Z,42.805,6.029,13.2985,4.59986,2469.993,2020-7-17T11:33:46Z
2020-07-17T09:36:03Z,42.805,6.029,13.2996,4.60011,2469.97,2020-7-17T11:36:50Z
2020-07-17T09:39:06Z,42.805,6.029,13.2993,4.60001,2469.984,2020-7-17T11:39:53Z
2020-07-17T09:42:09Z,42.805,6.029,13.2989,4.60001,2469.96,2020-7-17T11:42:56Z
2020-07-17T09:45:12Z,42.805,6.029,13.2996,4.59992,2470.007,2020-7-17T11:45:59Z
2020-07-17T09:48:16Z,42.805,6.029,13.2993,4.59986,2469.947,2020-7-17T11:49:02Z
2020-07-17T09:51:19Z,42.805,6.029,13.2991,4.59996,2469.984,2020-7-17T11:52:06Z
2020-07-17T09:54:22Z,42.805,6.029,13.3002,4.59986,2469.993,2020-7-17T11:55:09Z
2020-07-17T09:57:25Z,42.805,6.029,13.2995,4.60001,2469.97,2020-7-17T11:58:12Z
2020-07-17T10:00:28Z,42.805,6.029,13.2989,4.59999,2469.984,2020-7-17T12:01:15Z
2020-07-17T10:03:32Z,42.805,6.029,13.3000,4.60000,2469.993,2020-7-17T12:04:19Z
2020-07-17T10:06:35Z,42.805,6.029,13.2986,4.60047,2469.993,2020-7-17T12:07:22Z
2020-07-17T10:09:38Z,42.805,6.029,13.2992,4.59988,2469.97,2020-7-17T12:10:25Z
2020-07-17T10:12:41Z,42.805,6.029,13.2986,4.59994,2469.947,2020-7-17T12:13:28Z
2020-07-17T10:15:45Z,42.805,6.029,13.3000,4.59993,2469.984,2020-7-17T12:16:32Z
2020-07-17T10:18:48Z,42.805,6.029,13.3000,4.60007,2469.97,2020-7-17T12:19:35Z
2020-07-17T10:21:51Z,42.805,6.029,13.3004,4.59992,2469.97,2020-7-17T12:22:38Z
2020-07-17T10:24:55Z,42.805,6.029,13.2991,4.59993,2469.984,2020-7-17T12:25:41Z
2020-07-17T10:27:58Z,42.805,6.029,13.2988,4.59988,2469.947,2020-7-17T12:28:45Z
2020-07-17T10:31:01Z,42.805,6.029,13.2996,4.59987,2469.96,2020-7-17T12:31:48Z
2020-07-17T10:34:04Z,42.805,6.029,13.3000,4.60022,2470.017,2020-7-17T12:34:51Z
2020-07-17T10:37:07Z,42.805,6.029,13.2996,4.59998,2469.96,2020-7-17T12:37:54Z
2020-07-17T10:40:11Z,42.805,6.029,13.2989,4.60001,2469.984,2020-7-17T12:40:58Z
2020-07-17T10:43:14Z,42.805,6.029,13.2996,4.59986,2469.96,2020-7-17T12:44:01Z
2020-07-17T10:46:17Z,42.805,6.029,13.3001,4.60012,2469.97,2020-7-17T12:47:04Z
2020-07-17T10:49:21Z,42.805,6.029,13.3005,4.60000,2469.947,2020-7-17T12:50:08Z
2020-07-17T10:52:24Z,42.805,6.029,13.2998,4.59991,2469.947,2020-7-17T12:53:11Z
2020-07-17T10:55:27Z,42.805,6.029,13.3000,4.59996,2469.97,2020-7-17T12:56:14Z
2020-07-17T10:58:30Z,42.805,6.029,13.3001,4.59991,2469.97,2020-7-17T12:59:17Z
2020-07-17T11:01:34Z,42.805,6.029,13.2993,4.59991,2469.993,2020-7-17T13:02:21Z
2020-07-17T11:04:37Z,42.805,6.029,13.2994,4.59999,2469.947,2020-7-17T13:05:24Z
2020-07-17T11:07:40Z,42.805,6.029,13.2989,4.60016,2469.947,2020-7-17T13:08:27Z
2020-07-17T11:10:44Z,42.805,6.029,13.2993,4.60006,2469.97,2020-7-17T13:11:31Z
2020-07-17T11:13:47Z,42.805,6.029,13.2988,4.60004,2469.96,2020-7-17T13:14:34Z
2020-07-17T11:16:50Z,42.805,6.029,13.2988,4.59986,2469.96,2020-7-17T13:17:37Z
2020-07-17T11:19:54Z,42.805,6.029,13.2996,4.60017,2469.947,2020-7-17T13:20:40Z
2020-07-17T11:22:57Z,42.805,6.029,13.2991,4.59992,2469.947,2020-7-17T13:23:44Z
2020-07-17T11:26:00Z,42.805,6.029,13.2990,4.59996,2469.947,2020-7-17T13:26:47Z
2020-07-17T11:29:03Z,42.805,6.029,13.2993,4.59990,2469.993,2020-7-17T13:29:50Z
2020-07-17T11:32:07Z,42.805,6.029,13.2985,4.60013,2469.96,2020-7-17T13:32:53Z
2020-07-17T11:35:10Z,42.805,6.029,13.2994,4.60001,2469.96,2020-7-17T13:35:57Z
2020-07-17T11:38:13Z,42.805,6.029,13.2990,4.60009,2469.947,2020-7-17T13:39:00Z
2020-07-17T11:41:16Z,42.805,6.029,13.2982,4.60019,2469.947,2020-7-17T13:42:03Z
2020-07-17T11:44:19Z,42.805,6.029,13.2989,4.59994,2469.984,2020-7-17T13:45:06Z
2020-07-17T11:47:23Z,42.805,6.029,13.2996,4.60003,2469.96,2020-7-17T13:48:09Z
2020-07-17T11:50:26Z,42.805,6.029,13.3015,4.59986,2469.97,2020-7-17T13:51:13Z
2020-07-17T11:53:29Z,42.805,6.029,13.2987,4.60007,2469.947,2020-7-17T13:54:16Z
2020-07-17T11:56:32Z,42.805,6.029,13.2990,4.60003,2469.96,2020-7-17T13:57:19Z
2020-07-17T11:59:36Z,42.805,6.029,13.2990,4.60000,2469.937,2020-7-17T14:00:23Z
2020-07-17T12:02:39Z,42.805,6.029,13.2993,4.59990,2469.96,2020-7-17T14:03:26Z
2020-07-17T12:05:42Z,42.805,6.029,13.3005,4.59998,2469.984,2020-7-17T14:06:29Z
2020-07-17T12:08:45Z,42.805,6.029,13.2990,4.59992,2469.97,2020-7-17T14:09:32Z
2020-07-17T12:11:48Z,42.805,6.029,13.2991,4.59990,2469.947,2020-7-17T14:12:35Z
2020-07-17T12:14:52Z,42.805,6.029,13.2991,4.60007,2469.984,2020-7-17T14:15:39Z
2020-07-17T12:17:55Z,42.805,6.029,13.2993,4.60003,2469.984,2020-7-17T14:18:42Z
2020-07-17T12:20:58Z,42.805,6.029,13.2993,4.60010,2469.97,2020-7-17T14:21:45Z
2020-07-17T12:24:01Z,42.805,6.029,13.3022,4.60000,2469.947,2020-7-17T14:24:48Z
2020-07-17T12:27:05Z,42.805,6.029,13.2995,4.59996,2469.97,2020-7-17T14:27:51Z
2020-07-17T12:30:08Z,42.805,6.029,13.2988,4.60005,2469.947,2020-7-17T14:30:55Z
2020-07-17T12:33:11Z,42.805,6.029,13.2993,4.60011,2469.97,2020-7-17T14:33:58Z
2020-07-17T12:36:14Z,42.805,6.029,13.2986,4.60015,2469.96,2020-7-17T14:37:01Z
2020-07-17T12:39:18Z,42.805,6.029,13.2990,4.59991,2469.97,2020-7-17T14:40:04Z
2020-07-17T12:42:21Z,42.805,6.029,13.2986,4.59989,2469.97,2020-7-17T14:43:08Z
2020-07-17T12:45:24Z,42.805,6.029,13.2989,4.59999,2469.97,2020-7-17T14:46:11Z
2020-07-17T12:48:27Z,42.805,6.029,13.2992,4.60010,2470.007,2020-7-17T14:49:14Z
2020-07-17T12:51:31Z,42.805,6.029,13.2991,4.60003,2469.956,2020-7-17T14:52:18Z
2020-07-17T12:54:34Z,42.805,6.029,13.2994,4.59988,2469.993,2020-7-17T14:55:21Z
2020-07-17T12:57:37Z,42.805,6.029,13.2995,4.59991,2470.007,2020-7-17T14:58:24Z
2020-07-17T13:00:40Z,42.805,6.029,13.2985,4.59991,2469.947,2020-7-17T15:01:27Z
2020-07-17T13:03:44Z,42.805,6.029,13.2998,4.60000,2470.007,2020-7-17T15:04:31Z
2020-07-17T13:06:47Z,42.805,6.029,13.2996,4.59996,2469.993,2020-7-17T15:07:34Z
2020-07-17T13:09:50Z,42.805,6.029,13.2987,4.59990,2469.984,2020-7-17T15:10:37Z
2020-07-17T13:12:53Z,42.805,6.029,13.2994,4.59996,2469.993,2020-7-17T15:13:40Z
2020-07-17T13:15:57Z,42.805,6.029,13.2991,4.60000,2469.97,2020-7-17T15:16:44Z
2020-07-17T13:19:00Z,42.805,6.029,13.2994,4.59990,2470.007,2020-7-17T15:19:47Z
2020-07-17T13:22:03Z,42.805,6.029,13.2991,4.60001,2469.97,2020-7-17T15:22:50Z
2020-07-17T13:25:06Z,42.805,6.029,13.2999,4.59994,2469.97,2020-7-17T15:25:53Z
2020-07-17T13:28:10Z,42.805,6.029,13.2992,4.59999,2469.993,2020-7-17T15:28:56Z
2020-07-17T13:31:13Z,42.805,6.029,13.2998,4.59994,2469.97,2020-7-17T15:32:00Z
2020-07-17T13:34:16Z,42.805,6.029,13.2993,4.60006,2470.007,2020-7-17T15:35:03Z
2020-07-17T13:37:19Z,42.805,6.029,13.2990,4.60012,2469.984,2020-7-17T15:38:06Z
2020-07-17T13:40:23Z,42.805,6.029,13.2993,4.59998,2470.017,2020-7-17T15:41:09Z
2020-07-17T13:43:26Z,42.805,6.029,13.2989,4.59994,2470.053,2020-7-17T15:44:13Z
2020-07-17T13:46:29Z,42.805,6.029,13.2999,4.60007,2470.017,2020-7-17T15:47:16Z
2020-07-17T13:49:32Z,42.805,6.029,13.2996,4.59991,2469.993,2020-7-17T15:50:19Z
2020-07-17T13:52:35Z,42.805,6.029,13.3005,4.60003,2470.007,2020-7-17T15:53:22Z
2020-07-17T13:55:39Z,42.805,6.029,13.2997,4.60005,2469.993,2020-7-17T15:56:26Z
2020-07-17T13:58:42Z,42.805,6.029,13.3001,4.59999,2470.04,2020-7-17T15:59:29Z
2020-07-17T14:01:45Z,42.805,6.029,13.3000,4.59991,2470.007,2020-7-17T16:02:32Z
2020-07-17T14:04:49Z,42.805,6.029,13.3006,4.60009,2470.017,2020-7-17T16:05:35Z
2020-07-17T14:07:52Z,42.805,6.029,13.3007,4.59996,2470.053,2020-7-17T16:08:39Z
2020-07-17T14:10:55Z,42.805,6.029,13.3002,4.60003,2470.017,2020-7-17T16:11:42Z
2020-07-17T14:13:58Z,42.805,6.029,13.3010,4.60018,2470.053,2020-7-17T16:14:45Z
2020-07-17T14:17:01Z,42.805,6.029,13.2997,4.59988,2470.053,2020-7-17T16:17:48Z
2020-07-17T14:20:05Z,42.805,6.029,13.2997,4.59999,2470.04,2020-7-17T16:20:52Z
2020-07-17T14:23:08Z,42.805,6.029,13.2998,4.59996,2470.053,2020-7-17T16:23:55Z
2020-07-17T14:26:11Z,42.805,6.029,13.2998,4.60019,2470.017,2020-7-17T16:26:58Z
2020-07-17T14:29:15Z,42.805,6.029,13.2994,4.60047,2470.053,2020-7-17T16:30:01Z
2020-07-17T14:32:18Z,42.805,6.029,13.2998,4.60006,2470.04,2020-7-17T16:33:05Z
2020-07-17T14:35:21Z,42.805,6.029,13.2997,4.59999,2470.017,2020-7-17T16:36:08Z
2020-07-17T14:38:24Z,42.805,6.029,13.2998,4.60010,2470.077,2020-7-17T16:39:11Z
2020-07-17T14:41:27Z,42.805,6.029,13.3002,4.60003,2470.1,2020-7-17T16:42:14Z
2020-07-17T14:44:31Z,42.805,6.029,13.2998,4.60007,2470.053,2020-7-17T16:45:18Z
2020-07-17T14:47:34Z,42.805,6.029,13.3003,4.60003,2470.063,2020-7-17T16:48:21Z
2020-07-17T14:50:37Z,42.805,6.029,13.3000,4.59994,2470.063,2020-7-17T16:51:24Z
2020-07-17T14:53:41Z,42.805,6.029,13.3004,4.60000,2470.063,2020-7-17T16:54:28Z
2020-07-17T14:56:44Z,42.805,6.029,13.2997,4.59991,2470.1,2020-7-17T16:57:31Z
2020-07-17T14:59:47Z,42.805,6.029,13.3011,4.60002,2470.1,2020-7-17T17:00:34Z
2020-07-17T15:02:50Z,42.805,6.029,13.3003,4.60004,2470.087,2020-7-17T17:03:37Z
2020-07-17T15:05:54Z,42.805,6.029,13.2991,4.59993,2470.063,2020-7-17T17:06:41Z
2020-07-17T15:08:57Z,42.805,6.029,13.2997,4.60007,2470.11,2020-7-17T17:09:44Z
2020-07-17T15:12:01Z,42.805,6.029,13.2994,4.59993,2470.087,2020-7-17T17:12:47Z
2020-07-17T15:15:04Z,42.805,6.029,13.2999,4.59994,2470.063,2020-7-17T17:15:51Z